Kap Morris Jesup

KL  EN  DA
ASIAQ
Weather Now GREENLAND SURVEY
Updated [WGT/WGST] Temperature [°C] Wind [m/s] Air pressure [hPa] Relative humidity [%] Precipitation [mm]
Present Wind chill Speed Max
20.08 14:00-0,10,00,5 ⇘0,5100993n/a
20.08 13:00-0,20,00,5 ⇑0,5100995n/a
20.08 12:00-0,60,00,5 ⇐0,5100996n/a
20.08 11:00-0,50,00,5 ⇖1,0100995n/a
20.08 10:00-0,8-2,71,5 ⇖1,5100995n/a
20.08 09:00-0,80,01,0 ⇐1,5100997n/a
20.08 08:00-0,40,00,0 ⇓0,5100996n/a
20.08 07:00-1,2-4,52,6 ⇘3,6100997n/a
20.08 06:00-1,40,00,5 ⇗1,0100898n/a
20.08 05:00-1,40,00,5 ⇒1,0100898n/a
20.08 04:00-1,50,01,0 ⇖2,1100897n/a
20.08 03:00-1,4-5,73,6 ⇐4,1100897n/a
20.08 02:00-1,6-3,61,5 ⇐2,1100896n/a
20.08 01:00-1,90,00,5 ⇑1,0100996n/a
20.08 00:00-2,0-5,52,6 ⇐3,6100996n/a
19.08 23:00-2,4-4,51,5 ⇐2,1100997n/a
19.08 22:00-2,40,00,5 ⇓0,5100998n/a
19.08 21:00-2,6-4,71,5 ⇗2,6100995n/a
19.08 20:00-0,7-2,61,5 ⇒2,1100998n/a
19.08 19:00-0,7-4,43,1 ⇒4,1100998n/a
19.08 18:00-1,0-4,32,6 ⇒2,6100997n/a
19.08 17:00-1,3-5,23,1 ⇒4,6100997n/a
19.08 16:00-0,7-5,54,6 ⇒6,2100996n/a
19.08 15:00-1,0-5,94,6 ⇒6,2100997n/a
19.08 14:00-0,8-5,03,6 ⇒4,6100996n/a
Position: (83.6561111111,-33.3738888888)

[Back]